Location: Vaughan
(31.9146°N, 97.1736°W)
Time: 22:29:53
(UTC+00:00)

ATLAS 5 CENTAUR R/B - Pass Details

Date: 10 December 2025
Orbit: 315 x 12834 km, 60.8° (Epoch: 18 January)

Event Time Altitude Azimuth Distance (km) Brightness Sun altitude
Rises 00:17:44 0° 208° (SSW) 3,097 6.5 -11.2°
Reaches altitude 10° 00:19:11 10° 207° (SSW) 2,515 5.9 -11.4°
Maximum altitude 00:24:42 84° 119° (ESE) 1,669 4.1 -12.5°
Drops below altitude 10° 00:48:09 10° 35° (NE) 9,363 7.6 -17.3°
Sets 01:01:07 0° 37° (NE) 12,745 8.3 -19.9°
